Regional Weather Roundup
Issued by NWS

Home | Current Version | Previous Version | Graphics & Text | Print | Product List | Glossary On
Versions: 1 2 3 4 5 6 7 8 9 10 11 12 13 14 15 16 17 18 19 20 21 22 23 24 25 26 27
000
ASUS45 KBOU 171207
RWRCO

WEATHER ROUNDUP FOR COLORADO
NATIONAL WEATHER SERVICE DENVER/BOULDER CO
500 AM MST TUE JAN 17 2017

NOTE: "FAIR" INDICATES FEW OR NO CLOUDS BELOW 12000 FEET WITH NO
SIGNIFICANT WEATHER AND/OR OBSTRUCTIONS TO VISIBILITY.

COZ001>005-013-030-031-171300-
...NORTHWEST COLORADO...

CITY           SKY/WX    TMP DP  RH WIND       PRES   REMARKS
CRAIG          CLOUDY    14  11  87 W3        30.20S FOG
HAYDEN         CLOUDY    14  10  85 CALM      30.17S
MEEKER         MOCLDY    14  10  84 CALM      30.18S
MOUNT WERNER   NOT AVBL
STEAMBOAT SPGS CLOUDY    13  11  92 NW3       30.16S
WALDEN           N/A    N/A N/A N/A CALM      30.12F VSB 1/2
$$

COZ006>008-011-171300-
...WEST CENTRAL VALLEYS...

CITY           SKY/WX    TMP DP  RH WIND       PRES   REMARKS
GRAND JUNCTION FAIR      27  20  75 NW5       30.16S WCI  22
MONTROSE       CLOUDY    31  27  85 NW3       30.16F
EAGLE          CLOUDY    26  21  81 CALM      30.16S
RIFLE          FAIR      19  16  88 SE3       30.19S
DELTA          CLOUDY    34  27  75 CALM      30.16F
NUCLA          CLOUDY    32  28  86 CALM      30.17S
$$

COZ017>023-064>068-171300-
...SOUTHWEST COLORADO...

CITY           SKY/WX    TMP DP  RH WIND       PRES   REMARKS
DURANGO        CLOUDY    31  29  92 CALM      30.11S
CORTEZ         FLURRIES  33  31  92 CALM      30.12R
PAGOSA SPRINGS CLOUDY    32  32 100 CALM      30.12R FOG
TELLURIDE      CLOUDY    24  23  97 SE5       30.11F WCI  18
WOLF CREEK PAS CLOUDY    18  18 100 S13       30.14S WCI   4
$$

COZ009-010-012-014-032>034-037-058>063-171300-
...CENTRAL COLORADO...

CITY           SKY/WX    TMP DP  RH WIND       PRES   REMARKS
ASPEN          FAIR      15  12  88 S6        30.10F WCI   6
BUENA VISTA    MOCLDY    21  19  93 CALM      30.08S
COPPER MTN     FAIR      23  12  63 W6        30.09S WCI  16
BERTHOUD PASS  NOT AVBL
COTTONWOOD PAS CLOUDY   N/A N/A N/A SE7       30.06S
GUNNISON       LGT SNOW  22  21  96 NE6       30.12S FOG     WCI  14
KREMMLING      CLOUDY    19  16  86 CALM      30.16S
LEADVILLE      CLOUDY    20  17  88 NE5       30.07F WCI  13
MONARCH PASS   CLOUDY    19  18  93 MISG      30.18S
SALIDA         MOCLDY    28  26  91 W3        30.15S
SUNLIGHT       NOT AVBL
WILKERSON PASS FAIR     N/A N/A N/A W5        30.07F
$$

COZ069>075-171300-
...SAN LUIS VALLEY/SANGRE DE CRISTO MOUNTAINS...

CITY           SKY/WX    TMP DP  RH WIND       PRES   REMARKS
ALAMOSA        LGT SNOW  26  25  96 CALM      30.10S FOG
LA VETA PASS   LGT SNOW  23  21  93 NE26G39   30.04R WCI   6
SAGUACHE       LGT SNOW  28  28 100 CALM      30.11R
$$

COZ035-036-038>040-171300-
...NORTHERN COLORADO FRONT RANGE...

CITY           SKY/WX    TMP DP  RH WIND       PRES   REMARKS
DENVER INTL AP FAIR      21  17  84 SW7       30.03F WCI  12
DMNS CITY PARK   N/A     23  22  93 E8        30.03F WCI  14
AURORA         CLEAR     24  22  91 S8        30.03F WCI  15
FRONT RANGE AP FAIR      19  18  93 S7        30.04S WCI  10
ERIE MUNI ARPT FAIR      13  11  92 CALM      30.05S
BOULDER MUN AP FOG       25  25 100 CALM      30.03S VSB 3/4
CENTENNIAL     FAIR      21  17  84 SE3       30.02F
BROOMFIELD     FAIR      28  23  80 CALM      30.03F
FORT COLLINS   FAIR      19  16  86 CALM      30.05F
LONGMONT       FAIR      16  13  88 CALM      30.06F
$$

COZ041-046-047-076>085-087-088-171300-
...PIKES PEAK/PALMER DIVIDE AND SOUTHERN FOOTHILLS...

CITY           SKY/WX    TMP DP  RH WIND       PRES   REMARKS
COLO. SPRINGS  FOG       30  28  92 S8        30.06F VSB 1/4 WCI  22
A. F. ACADEMY  CLOUDY    27  27 100 CALM      30.04F FOG
SCHRIEVER AFB  NOT AVBL
ELLICOTT       CLOUDY   N/A N/A N/A SW8       30.05F
FALCON         FOG       28  28 100 SW8       30.05F VSB 1/4 WCI  20
FORT CARSON    MOCLDY    30  28  93 SW5       30.07F WCI  25
LIMON          FAIR      16  14  92 CALM      30.06F
MONUMENT HILL  CLOUDY    21  21 100 SW8       30.03F FOG     WCI  12
TRINIDAD       FOG       19  16  88 CALM      30.09F VSB<1/4
$$

COZ042>045-048>051-090-091-171300-
...NORTHEAST COLORADO...

CITY           SKY/WX    TMP DP  RH WIND       PRES   REMARKS
GREELEY ARPT   FAIR      16  13  88 CALM      30.07F
AKRON          FAIR      17  11  77 W10       30.05S WCI   5
BURLINGTON     FAIR      26  20  77 W8        30.08F WCI  18
WRAY           FAIR      18  12  79 W7        30.08F WCI   8
STERLING       FAIR      14  10  85 SW7       30.07S WCI   4
HOLYOKE        FAIR      18  10  73 W9        30.07S WCI   6
FORT MORGAN    FAIR      17  15  91 W7        30.07S WCI   8
$$

COZ086-089-092>099-171300-
...SOUTHEAST COLORADO...

CITY           SKY/WX    TMP DP  RH WIND       PRES   REMARKS
PUEBLO         CLOUDY    31  30  96 E3        30.08F
LA JUNTA       CLOUDY    32  30  92 SW10      30.10F WCI  24
LAMAR          CLOUDY    33  31  92 SW6       30.10F WCI  28
SPRINGFIELD      N/A     29  28  96 W7        30.11F WCI  22
$$




USA.gov is the U.S. government's official web portal to all federal, state and local government web resources and services.